Flag for United Kingdom Weather past 2 weeks in Gloucester, England, United Kingdom

Now
46 °F

Scattered clouds.


Feels Like: 44 °F
Forecast: 39 / 49 °F
Wind: 6 mph from Northwest

Location: Staverton Private

Current Time: Jan 26, 2015 at 9:37:15 AM

Latest Report: Jan 26, 2015 at 9:20 AM


Visibility: N/A

Pressure: 30.21 "Hg

Humidity: 100%

Dew point: 46 °F

Location of GloucesterLocation

Historic Weather in Gloucester — Graph

°F

Gloucester temperature yesterday

Maximum temperature yesterday: 48 °F (at 2:20 PM)
Minimum temperature yesterday: 39 °F (at 8:50 AM)
Average temperature yesterday: 45 °F

Past Weeks' High & Low Weather Summary

 TemperatureHumidityPressure
High52 °F (Jan 12, 12:50 PM)100% (Jan 12, 11:20 AM)30.45 "Hg (Jan 12, 11:20 AM)
Low27 °F (Jan 23, 6:20 AM)62% (Jan 24, 1:20 PM)29.09 "Hg (Jan 15, 6:50 AM)
Average40 °F85%29.87 "Hg
* Reported Jan 11 8:20 AM — Jan 26 8:20 AM, Gloucester, Weather by CustomWeather, © 2014

Note: Actual official high and low records may vary slightly from our data, if they occured in-between our weather recording intervals... More about our weather records

Advertising

Gloucester weather history for previous 24 hours

 ConditionsComfort  
Time TempWeatherWind HumidityBarometerVisibility
8:20 AM
Jan 26
46 °FPassing clouds.5 mph100%30.18 "HgN/A
7:50 AM48 °FPartly cloudy.5 mph94%30.18 "HgN/A
7:20 AM48 °FPartly cloudy.5 mph94%30.15 "HgN/A
5:50 PM
Jan 25
46 °FPartly cloudy.9 mph93%30.33 "HgN/A
5:20 PM46 °FPartly cloudy.9 mph93%30.33 "HgN/A
4:50 PM46 °FPartly cloudy.10 mph93%30.33 "HgN/A
4:20 PM46 °FBroken clouds.10 mph93%30.36 "HgN/A
3:50 PM46 °FBroken clouds.12 mph93%30.36 "HgN/A
3:20 PM46 °FScattered showers. Partly sunny.12 mph93%30.36 "HgN/A
2:50 PM48 °FPartly sunny.12 mph82%30.36 "HgN/A
2:20 PM48 °FPartly sunny.10 mph82%30.36 "HgN/A
1:50 PM46 °FPartly sunny.12 mph87%30.36 "HgN/A
1:20 PM46 °FPartly sunny.9 mph87%30.39 "HgN/A
12:50 PM46 °FOvercast.10 mph82%30.39 "HgN/A
12:20 PM45 °FOvercast.9 mph87%30.39 "HgN/A
11:50 AM45 °FPartly sunny.10 mph87%30.42 "HgN/A
11:20 AM45 °FScattered clouds.9 mph81%30.42 "HgN/A
10:50 AM45 °FPassing clouds.9 mph81%30.42 "HgN/A
10:20 AM43 °FPassing clouds.9 mph87%30.42 "HgN/A
9:50 AM43 °FPassing clouds.8 mph81%30.42 "HgN/A
9:20 AM41 °FPassing clouds.7 mph87%30.42 "HgN/A
Weather by CustomWeather, © 2014

See weather overviewHow to use our weather pages